Regional Weather Roundup
Issued by NWS

Home | Current Version | Previous Version | Graphics & Text | Print | Product List | Glossary On
Versions: 1 2 3 4 5 6 7 8 9 10 11 12 13 14 15 16 17 18 19 20 21 22 23 24 25 26 27
000
ASUS45 KPSR 260810
RWRAZ

ARIZONA HOURLY REGIONAL WEATHER ROUNDUP
NATIONAL WEATHER SERVICE PHOENIX AZ
100 AM MST TUE JUL 26 2016

NOTE: FAIR INDICATES FEW OR NO CLOUDS BELOW 12,000 FEET WITH NO
SIGNIFICANT WEATHER AND/OR OBSTRUCTIONS TO VISIBILITY.

AZZ001>003-036-260900-
NORTHWEST ARIZONA

CITY           SKY/WX    TMP DP  RH WIND       PRES   REMARKS
BULLHEAD CITY  PTCLDY    97  55  24 SW5       29.79R
KINGMAN        PTCLDY    80  53  39 SW6       30.02F
$$

AZZ004>008-015-016-018-260900-
NORTH CENTRAL ARIZONA

CITY           SKY/WX    TMP DP  RH WIND       PRES   REMARKS
GRAND CANYON   CLOUDY    69  45  41 NE5       30.31F
WILLIAMS       DRIZZLE   66  52  59 CALM      30.40S
PRESCOTT       MOCLDY    65  60  84 SW5       30.19R
FLAGSTAFF      CLOUDY    56  55  97 CALM      30.34F
PAYSON         MOCLDY    73  52  46 CALM      30.19S
PAGE           CLOUDY    86  45  23 SW7       30.07S
$$

AZZ009>014-017-260900-
NORTHEAST ARIZONA

CITY           SKY/WX    TMP DP  RH WIND       PRES   REMARKS
WINSLOW        CLOUDY    74  51  44 SW5       30.17F
SAINT JOHNS    LGT RAIN  69  55  60 N6        30.23S
WINDOW ROCK    CLOUDY    68  52  56 E7        30.33F
SHOW LOW       MOCLDY    66  50  55 CALM      30.30S
$$

AZZ023-260900-
GREATER PHOENIX AREA

CITY           SKY/WX    TMP DP  RH WIND       PRES   REMARKS
PHOENIX        MOCLDY    96  55  25 NW14      29.80S
BUCKEYE        MOCLDY    91  55  29 N6        29.82F
LUKE AFB       MOCLDY    91  58  32 N8        29.81S
DEER VALLEY    MOCLDY    90  54  29 N7        29.84F
SCOTTSDALE     PTCLDY    92  52  25 N7        29.86R
MESA-GATEWAY   PTCLDY    88  55  33 SW3       29.83S
$$

AZZ027-028-260900-
SOUTHWEST MARICOPA COUNTY AND PINAL COUNTY

CITY           SKY/WX    TMP DP  RH WIND       PRES   REMARKS
CASA GRANDE    MOCLDY    91  55  29 CALM      29.85S
GILA BEND      CLOUDY    94  56  27 SW9       29.78F
$$

AZZ503-504-507>509-260900-
SOUTHEAST ARIZONA

CITY           SKY/WX    TMP DP  RH WIND       PRES   REMARKS
TUCSON         CLEAR     88  59  37 W9        29.95F
DAVIS-MONTHAN  CLEAR     87  59  38 W6        29.94S
NOGALES        CLEAR     75  59  57 CALM      30.05F
SIERRA VISTA   PTCLDY    79  55  42 W8        30.12F
DOUGLAS        PTCLDY    76  63  64 W6        30.06S
SAFFORD        CLOUDY    81  58  45 S20       30.04R
$$

AZZ020-021-025-026-031-260900-
SOUTHWEST ARIZONA

CITY           SKY/WX    TMP DP  RH WIND       PRES   REMARKS
YUMA           TSTM      87  72  60 S12       29.79S
$$

CAZ031-033-041-043-047-048-061-260900-
SOUTHERN CALIFORNIA

CITY           SKY/WX    TMP DP  RH WIND       PRES   REMARKS
DOWNTOWN L.A.  CLOUDY    69  64  84 W3        29.91F
L.A. AIRPORT   MOCLDY    69  64  84 W7        29.92S
SAN DIEGO      PTCLDY    68  66  93 N5        29.92F
BURBANK        CLOUDY    74  61  63 SE6       29.92S
ONTARIO        MOCLDY    75  60  59 W8        29.93F
RIVERSIDE      PTCLDY    75  61  61 W3        29.93S
PALM SPRINGS   PTCLDY    92  54  27 NW13      29.81S
EL CENTRO NAS  PTCLDY    91  63  39 SE13      29.79R
IMPERIAL       PTCLDY    94  66  39 SE10      29.77R
BLYTHE         PTCLDY    97  63  32 SW10      29.79R
NEEDLES        PTCLDY   100  56  23 S9        29.80R
$$

NVZ020-UTZ003-260900-
SOUTHERN NEVADA-UTAH

CITY           SKY/WX    TMP DP  RH WIND       PRES   REMARKS
LAS VEGAS      MOCLDY    95  42  16 S9        29.82S
SALT LAKE CITY PTCLDY    82  40  22 SE12      30.02S
$$

NMZ009-TXZ055-260900-
NEW MEXICO-WEST TEXAS

CITY           SKY/WX    TMP DP  RH WIND       PRES   REMARKS
ALBUQUERQUE    CLOUDY    72  58  61 E18G24    30.26F
EL PASO        PTCLDY    87  50  27 E6        30.04S
$$


........................KEY........................
SKY/WX - SKY CONDITION/WEATHER
TMP    - TEMPERATURE IN FAHRENHEIT
DP     - DEW POINT IN FAHRENHEIT
RH     - RELATIVE HUMIDITY IN PERCENT
WIND   - DIRECTION AND SPEED IN MILES PER HOUR (MPH)
VRB    - VARIABLE WIND DIRECTION
PRES   - MEAN SEA LEVEL PRESSURE IN INCHES OF MERCURY
         F - FALLING PRESSURE   R - RISING PRESSURE
         S - STEADY PRESSURE
VSB    - VISIBILITY IN MILES
HX     - HEAT INDEX IN FAHRENHEIT
WCI    - WIND CHILL INDEX IN FAHRENHEIT
TC     - TEMPERATURE IN CELSIUS WHICH IS ALSO KNOWN AS
         TEMPERATURE IN CENTIGRADE
AFB    - AIR FORCE BASE
         LUKE AFB IS LUKE AIR FORCE BASE
         DAVIS-MONTHAN IS DAVIS-MONTHAN AIR FORCE BASE
NAS    - NAVAL AIR STATION
         EL CENTRO NAS IS EL CENTRO NAVAL AIR STATION
N/A    - NOT AVAILABLE





USA.gov is the U.S. government's official web portal to all federal, state and local government web resources and services.